West Palm Beach, FL

8:02 AM EST on November 15, 2019 (GMT -0500)
Palm Beach International

Weather History for KPBI - September, 2019

Change the Weather History Date:

Tuesday, September 3, 2019

  Actual Average Record
Temperature  
Mean Temperature 81 °F 82 °F  
Max Temperature 85 °F 89 °F 96 °F (1951)
Min Temperature 76 °F 76 °F 69 °F (1996)
Degree Days  
Heating Degree Days 0 0  
Month to date heating degree days 0 0  
Since 1 July heating degree days 0 0  
Cooling Degree Days 16 17  
Month to date cooling degree days 51 51  
Year to date cooling degree days 3217 2757  
Growing Degree Days 30 (Base 50)    
Moisture  
Dew Point 74 °F    
Average Humidity 83    
Maximum Humidity 91    
Minimum Humidity 74    
Precipitation  
Precipitation 0.00 in 0.29 in 2.17 in (1979)
Month to date precipitation 0.09 0.87  
Year to date precipitation 44.05 41.59  
Snow  
Snow 0.00 in - - ()
Month to date snowfall 0.0  
Since 1 July snowfall 0.0  
Since 1 September snowfall 0.0  
Snow Depth 0.00 in    
Sea Level Pressure  
Sea Level Pressure 29.62 in    
Wind  
Wind Speed 21 mph (WNW)    
Max Wind Speed 35 mph    
Max Gust Speed 43 mph    
Visibility 8 miles    
Events      
T = Trace of Precipitation, MM = Missing Value Source: NWS Daily Summary

Daily Weather History Graph

Daily Weather History Graph

Search for Another Location

Airport or City:

Astronomy

Sep. 03, 2019 Rise Set
Actual Time 7:00 AM EDT 7:38 PM EDT
Civil Twilight 6:37 AM EDT 8:01 PM EDT
Nautical Twilight 6:09 AM EDT 8:29 PM EDT
Astronomical Twilight 5:41 AM EDT 8:57 PM EDT
Moon 11:26 AM EDT (9/3) 11:02 PM EDT (9/3)
Length of Visible Light 13h 24m
Length of Day
12h 37m
Waxing Crescent, 24% of the Moon is Illuminated
Sep 3
Waxing Crescent
Sep 5
First Quarter
Sep 14
Full
Sep 21
Last Quarter
Sep 28
New

Hourly Weather History & Observations

Time (EDT) Temp. Heat Index Dew Point Humidity Pressure Visibility Wind Dir Wind Speed Gust Speed Precip Events Conditions
12:50 AM 78.8 °F - 75.2 °F 89% 29.61 in 7.0 mi NW 19.6 mph 26.5 mph N/A   Overcast
12:53 AM 78.1 °F - 75.9 °F 93% 29.61 in 8.0 mi NW 19.6 mph 26.5 mph N/A   Overcast
1:06 AM 78.1 °F - 75.0 °F 90% 29.62 in 3.0 mi NNW 20.7 mph 33.4 mph N/A   Overcast
1:53 AM 79.0 °F - 75.0 °F 88% 29.60 in 10.0 mi NNW 20.7 mph 28.8 mph N/A   Overcast
2:53 AM 78.1 °F - 75.0 °F 90% 29.58 in 5.0 mi NNW 17.3 mph 33.4 mph N/A   Overcast
3:18 AM 79.0 °F - 73.9 °F 84% 29.56 in 10.0 mi NNW 17.3 mph 29.9 mph N/A   Overcast
3:53 AM 78.1 °F - 75.0 °F 90% 29.56 in 9.0 mi NW 20.7 mph 28.8 mph N/A   Overcast
4:53 AM 79.0 °F - 75.0 °F 88% 29.56 in 7.0 mi NW 13.8 mph - N/A   Overcast
5:03 AM 78.1 °F - 75.0 °F 90% 29.56 in 5.0 mi NW 12.7 mph - N/A   Overcast
5:46 AM 78.1 °F - 75.0 °F 90% 29.57 in 7.0 mi NW 17.3 mph 24.2 mph N/A   Overcast
5:53 AM 78.1 °F - 75.0 °F 90% 29.57 in 9.0 mi NW 16.1 mph 26.5 mph N/A   Overcast
6:25 AM 78.1 °F - 75.0 °F 90% 29.59 in 8.0 mi NNW 15.0 mph 26.5 mph N/A   Overcast
6:53 AM 78.1 °F - 75.0 °F 90% 29.57 in 10.0 mi WNW 19.6 mph - N/A   Overcast
7:53 AM 78.1 °F - 75.0 °F 90% 29.59 in 8.0 mi WNW 17.3 mph 31.1 mph N/A   Overcast
8:18 AM 78.1 °F - 75.0 °F 90% 29.61 in 4.0 mi WNW 16.1 mph 26.5 mph N/A   Overcast
8:26 AM 78.1 °F - 75.0 °F 90% 29.61 in 6.0 mi WNW 17.3 mph - N/A   Overcast
8:34 AM 78.1 °F - 75.0 °F 90% 29.61 in 9.0 mi WNW 20.7 mph 27.6 mph N/A   Overcast
8:53 AM 78.1 °F - 75.0 °F 90% 29.61 in 10.0 mi WNW 18.4 mph - N/A   Overcast
9:53 AM 78.1 °F - 75.0 °F 90% 29.61 in 3.0 mi NW 21.9 mph 35.7 mph N/A   Overcast
10:20 AM 78.1 °F - 75.9 °F 93% 29.62 in 2.5 mi NW 18.4 mph 24.2 mph N/A   Overcast
10:29 AM 79.0 °F - 75.9 °F 90% 29.62 in 10.0 mi NW 17.3 mph 28.8 mph N/A   Overcast
10:41 AM 80.1 °F 85.4 °F 75.9 °F 87% 29.61 in 10.0 mi WNW 21.9 mph 31.1 mph N/A   Overcast
10:53 AM 81.0 °F 87.3 °F 75.9 °F 85% 29.61 in 10.0 mi WNW 21.9 mph 33.4 mph N/A   Overcast
11:17 AM 80.1 °F 85.1 °F 75.0 °F 85% 29.62 in 2.5 mi WNW 20.7 mph 33.4 mph N/A   Haze
11:27 AM 80.1 °F 85.4 °F 75.9 °F 87% 29.62 in 8.0 mi NW 23.0 mph 32.2 mph N/A   Overcast
11:50 AM 80.6 °F 86.2 °F 75.2 °F 84% 29.62 in 10.0 mi NW 24.2 mph 34.5 mph N/A   Overcast
11:53 AM 81.0 °F 86.7 °F 75.0 °F 82% 29.62 in 10.0 mi NW 24.2 mph 34.5 mph N/A   Overcast
12:22 PM 82.0 °F 88.6 °F 75.0 °F 79% 29.61 in 10.0 mi NW 23.0 mph 32.2 mph N/A   Overcast
12:53 PM 82.9 °F 90.2 °F 75.0 °F 77% 29.60 in 10.0 mi WNW 23.0 mph 33.4 mph N/A   Mostly Cloudy
1:50 PM 80.6 °F 85.4 °F 73.4 °F 79% 29.62 in 2.5 mi NW 25.3 mph 36.8 mph N/A   Haze
1:53 PM 79.0 °F - 73.9 °F 84% 29.62 in 2.5 mi WNW 20.7 mph 36.8 mph N/A   Haze
1:58 PM 79.0 °F - 75.0 °F 88% 29.62 in 3.0 mi WNW 19.6 mph - N/A   Overcast
2:05 PM 78.1 °F - 75.0 °F 90% 29.62 in 4.0 mi WNW 19.6 mph 27.6 mph N/A   Overcast
2:53 PM 81.0 °F 87.3 °F 75.9 °F 85% 29.60 in 10.0 mi West 20.7 mph 32.2 mph N/A   Mostly Cloudy
3:53 PM 82.9 °F 89.4 °F 73.9 °F 74% 29.59 in 10.0 mi WNW 29.9 mph 39.1 mph N/A   Overcast
4:53 PM 82.0 °F 87.4 °F 73.0 °F 74% 29.60 in 10.0 mi West 23.0 mph 33.4 mph N/A   Mostly Cloudy
5:32 PM 78.1 °F - 73.9 °F 87% 29.61 in 2.0 mi WNW 23.0 mph 39.1 mph N/A   Overcast
5:43 PM 79.0 °F - 73.9 °F 84% 29.62 in 10.0 mi WNW 21.9 mph 28.8 mph N/A   Overcast
5:53 PM 77.0 °F - 73.0 °F 88% 29.63 in 4.0 mi WNW 25.3 mph 32.2 mph N/A   Overcast
6:53 PM 78.1 °F - 72.0 °F 81% 29.63 in 10.0 mi West 17.3 mph - N/A   Mostly Cloudy
7:53 PM 80.1 °F 84.2 °F 73.0 °F 79% 29.65 in 10.0 mi West 18.4 mph 27.6 mph N/A   Overcast
8:53 PM 80.1 °F 84.2 °F 73.0 °F 79% 29.69 in 6.0 mi WNW 24.2 mph 33.4 mph N/A   Haze
9:07 PM 75.9 °F - 73.0 °F 91% 29.68 in 7.0 mi NNW 11.5 mph - N/A   Overcast
9:21 PM 77.0 °F - 73.0 °F 88% 29.69 in 6.0 mi WNW 10.4 mph - N/A   Overcast
9:32 PM 78.1 °F - 73.0 °F 84% 29.70 in 10.0 mi WNW 24.2 mph 31.1 mph N/A   Overcast
9:53 PM 79.0 °F - 73.0 °F 82% 29.70 in 10.0 mi West 24.2 mph 39.1 mph N/A   Scattered Clouds
10:53 PM 75.9 °F - 71.1 °F 85% 29.71 in 10.0 mi West 17.3 mph 24.2 mph N/A   Partly Cloudy
11:53 PM 77.0 °F - 71.1 °F 82% 29.71 in 10.0 mi WSW 17.3 mph - N/A   Clear